[[{"header":{"parameterUnit":"m.s-1","parameterCategory":1,"la1":30.2991,"la2":30.254,"lo1":-89.0895,"lo2":-89.0444,"dx":0.0017,"dy":0.0017,"nx":28,"ny":28,"refTime":"2023-02-06T09:00:00:Z","depth":0,"parameterNumber":2,"parameterNumberName":"U-component_of_WINDS"},"data":[0,0,0,0,0,0,0,0,0,0,0,0,0,0,0,0,0,0,0,0,0,0,0,0,0,0,0,0,0,0,0,0,0,0,0,0,0,0,0,0,0,0,0,0,0,0,0,0,0,0,0,0,0,0,0,0,0,0,-3.4228,-3.4229,0,-3.4349,-3.4351,-3.4352,-3.4352,-3.435,-3.4349,-3.4347,-3.4472,-3.4477,-3.4481,0,0,0,0,0,0,0,0,0,0,0,0,0,-3.3997,-3.4001,-3.4228,-3.4229,-3.4231,-3.4349,-3.4351,-3.4353,-3.4352,-3.435,-3.4348,-3.4347,-3.447,-3.4476,-3.4482,0,0,0,0,0,0,0,0,0,0,0,0,0,-3.4106,-3.4002,-3.4228,-3.4245,-3.4248,-3.4349,-3.4351,-3.4353,-3.4353,-3.435,-3.4348,-3.4346,-3.4468,-3.4475,-3.4483,-3.4574,0,0,-3.4504,-3.4508,0,0,0,0,0,0,0,0,-3.4099,-3.4114,-3.4241,-3.4244,-3.4247,-3.4333,-3.4315,-3.4427,-3.4353,-3.4313,-3.4347,-3.4345,-3.4428,-3.4438,-3.4466,-3.458,-3.4585,-3.4505,-3.4509,-3.4513,-3.4515,0,0,0,0,0,0,0,-3.4092,-3.4109,-3.4276,-3.4243,-3.4247,-3.4247,-3.426,-3.4336,-3.4382,-3.4316,-3.4317,-3.4331,-3.4429,-3.4459,-3.4469,-3.4587,-3.4505,-3.4511,-3.4516,-3.4519,-3.4783,-3.4785,0,0,0,0,0,0,-3.4081,-3.4103,-3.4272,-3.428,-3.4166,-3.4253,-3.4268,-3.4308,-3.4381,-3.439,-3.4333,-3.433,-3.4448,-3.4461,-3.4473,-3.4585,-3.4512,-3.4519,-3.4523,-3.478,-3.4783,-3.4786,0,0,0,0,0,0,-3.4076,-3.4096,-3.4267,-3.4191,-3.4213,-3.426,-3.4305,-3.4312,-3.4342,-3.4394,-3.4402,-3.4355,-3.4447,-3.4463,-3.4549,-3.4589,-3.4522,-3.4529,-3.4777,-3.4781,-3.4785,-3.4809,0,0,0,0,0,0,-3.4069,-3.4094,-3.4129,-3.4192,-3.4217,-3.4341,-3.4308,-3.4316,-3.4354,-3.4352,-3.4417,-3.4425,-3.4446,-3.4538,-3.4556,-3.4598,-3.4535,-3.4773,-3.4779,-3.4784,-3.4805,-3.4814,-3.4821,0,0,0,0,0,-3.4061,-3.4131,-3.4131,-3.4151,-3.4262,-3.4343,-3.4357,-3.438,-3.4357,-3.4393,-3.4427,-3.4423,-3.4583,-3.4547,-3.4567,-3.4612,-3.4771,-3.4777,-3.4783,-3.4801,-3.4812,-3.4821,0,0,0,0,0,0,-3.4071,-3.414,-3.414,-3.4233,-3.4282,-3.4343,-3.4388,-3.439,-3.4447,-3.4443,-3.4468,-3.4483,-3.4569,-3.4599,-3.4559,-3.4705,-3.4674,-3.4684,-3.4681,-3.4691,-3.4699,-3.4689,-3.4541,0,0,0,0,0,-3.4084,-3.4144,-3.4201,-3.4277,-3.4302,-3.4341,-3.4377,-3.439,-3.4443,-3.4463,-3.4503,-3.4554,-3.4616,-3.4656,-3.4715,-3.481,-3.4824,-3.4851,-3.4859,-3.4865,-3.4873,-3.4925,-3.4938,-3.4806,-3.4806,-3.4806,0,0,-3.4112,-3.4157,-3.4193,-3.4281,-3.432,-3.4382,-3.4359,-3.4425,-3.4471,-3.4474,-3.4557,-3.4588,-3.4647,-3.4737,-3.4779,-3.4766,-3.4913,-3.4873,-3.4878,-3.4882,-3.4933,-3.4945,-3.4956,-3.4811,-3.481,-3.4809,0,0,-3.4193,-3.4234,-3.4301,-3.4342,-3.4402,-3.4428,-3.4445,-3.4506,-3.4526,-3.4611,-3.4614,-3.467,-3.4775,-3.4817,-3.4851,-3.495,-3.4949,-3.4969,-3.501,-3.5061,-3.5071,-3.508,-3.5114,-3.5126,-3.4977,-3.4978,-3.4978,0,-3.4219,-3.4312,-3.4336,-3.4402,-3.4441,-3.4447,-3.4516,-3.4554,-3.4631,-3.4658,-3.4641,-3.4774,-3.4814,-3.4914,-3.4938,-3.4967,-3.4986,-3.4961,-3.5068,-3.5077,-3.5086,-3.5119,-3.5132,-3.4979,-3.4979,-3.4979,-3.4979,0,-3.4341,-3.4406,-3.4453,-3.4527,-3.4571,-3.4639,-3.4673,-3.4715,-3.4725,-3.4752,-3.4838,-3.4887,-3.4956,-3.4981,-3.4992,-3.5084,-3.5073,-3.5062,-3.5031,-3.51,-3.5131,-3.5144,-3.4982,-3.4982,-3.4981,-3.498,0,0,-3.443,-3.4518,-3.4534,-3.4568,-3.4636,-3.4687,-3.4755,-3.4823,-3.4858,-3.4912,-3.4969,-3.5059,-3.5049,-3.5089,-3.5105,-3.5149,-3.5223,-3.5133,-3.5135,-3.5147,-3.5327,-3.5333,-3.5347,-3.5224,-3.5227,-3.5229,-3.5321,0,-3.4518,-3.4638,-3.4662,-3.4766,-3.4826,-3.4833,-3.4893,-3.4941,-3.4969,-3.5024,-3.5056,-3.5118,-3.5102,-3.5126,-3.517,-3.5205,-3.526,-3.5199,-3.5277,-3.5279,-3.526,-3.5364,-3.5371,-3.5456,-3.5334,-3.5336,-3.5338,0,-3.4635,-3.4691,-3.4801,-3.4862,-3.4888,-3.494,-3.5005,-3.5058,-3.5113,-3.5131,-3.5176,-3.5186,-3.5258,-3.5226,-3.5324,-3.5282,-3.5316,-3.5338,-3.5342,-3.5349,-3.5311,-3.5372,-3.5484,-3.5496,-3.5357,-3.5356,-3.5354,0,-3.4687,-3.4791,-3.487,-3.4899,-3.4972,-3.5008,-3.5041,-3.5094,-3.5133,-3.519,-3.5216,-3.5281,-3.5315,-3.5365,-3.5393,-3.5368,-3.549,-3.546,-3.5506,-3.5505,-3.5529,-3.5527,-3.5646,-3.5554,-3.5554,-3.5554,-3.5553,0,-3.4781,-3.4847,-3.4894,-3.4942,-3.5018,-3.5046,-3.5119,-3.5151,-3.5199,-3.5254,-3.5266,-3.5317,-3.5352,-3.5409,-3.5432,-3.5509,-3.5525,-3.5541,-3.5546,-3.5539,-3.5537,-3.556,-3.5554,-3.5557,-3.5556,-3.5556,-3.5555,0,-3.485,-3.4884,-3.4971,-3.5033,-3.5051,-3.5103,-3.5157,-3.5205,-3.5234,-3.5303,-3.5321,-3.5367,-3.5434,-3.5468,-3.5552,-3.5567,-3.5654,-3.5657,-3.5635,-3.5637,-3.568,-3.5675,-3.5817,-3.5836,-3.5733,-3.5734,-3.5735,0,-3.4907,-3.4958,-3.5026,-3.5064,-3.5097,-3.5158,-3.5198,-3.5228,-3.527,-3.5337,-3.5377,-3.5445,-3.5501,-3.5608,-3.5649,-3.5713,-3.5716,-3.5762,-3.5726,-3.5717,-3.5715,-3.5711,-3.5716,-3.5767,-3.5768,-3.5769,-3.5769,0,-3.5003,-3.5018,-3.5075,-3.5139,-3.5187,-3.5239,-3.529,-3.5321,-3.5359,-3.5405,-3.5474,-3.5518,-3.5604,-3.5671,-3.5739,-3.5772,-3.5777,-3.5781,-3.5795,-3.5787,-3.5772,-3.5779,-3.5651,-3.5777,-3.5776,-3.5776,-3.5775,-3.5775,-3.5067,-3.5113,-3.5168,-3.5232,-3.5274,-3.5321,-3.5369,-3.5404,-3.5462,-3.5534,-3.5549,-3.5622,-3.5677,-3.5769,-3.5805,-3.5862,-3.5852,-3.5873,-3.5877,-3.5881,-3.5883,-3.5764,-3.5875,-3.5875,-3.5875,-3.5875,-3.5875,0,-3.5162,-3.5198,-3.5257,-3.5328,-3.5379,-3.538,-3.5437,-3.5479,-3.5543,-3.5594,-3.5649,-3.5729,-3.5794,-3.5841,-3.5908,-3.5945,-3.5949,-3.5961,-3.5958,-3.5965,-3.5888,-3.5869,-3.5957,-3.5957,-3.5957,-3.5957,-3.5957,-3.5957,-3.5217,-3.5295,-3.5317,-3.5415,-3.5452,-3.5523,-3.5555,-3.5599,-3.564,-3.5728,-3.5783,-3.5813,-3.5863,-3.5933,-3.5994,-3.6006,-3.6029,-3.6041,-3.6053,-3.598,-3.5971,-3.5963,-3.5944,-3.6047,-3.6047,-3.6125,-3.6126,-3.6126]},{"header":{"parameterUnit":"m.s-1","parameterCategory":1,"la1":30.2991,"la2":30.254,"lo1":-89.0895,"lo2":-89.0444,"dx":0.0017,"dy":0.0017,"nx":28,"ny":28,"refTime":"2023-02-06T09:00:00:Z","depth":0,"parameterNumber":3,"parameterNumberName":"V-component_of_WINDS"},"data":[0,0,0,0,0,0,0,0,0,0,0,0,0,0,0,0,0,0,0,0,0,0,0,0,0,0,0,0,0,0,0,0,0,0,0,0,0,0,0,0,0,0,0,0,0,0,0,0,0,0,0,0,0,0,0,0,0,0,1.6733,1.6733,0,1.6755,1.6756,1.6756,1.673,1.6729,1.6728,1.6727,1.6751,1.6753,1.6754,0,0,0,0,0,0,0,0,0,0,0,0,0,1.667,1.6671,1.6733,1.6733,1.6734,1.6755,1.6756,1.6756,1.673,1.6729,1.6728,1.6727,1.6751,1.6753,1.6754,0,0,0,0,0,0,0,0,0,0,0,0,0,1.6696,1.6672,1.6733,1.6723,1.6723,1.6755,1.6756,1.6756,1.6731,1.6729,1.6728,1.6726,1.675,1.6752,1.6755,1.6798,0,0,1.6762,1.6763,0,0,0,0,0,0,0,0,1.6694,1.6698,1.6724,1.6724,1.6723,1.6738,1.6742,1.677,1.6731,1.6728,1.6727,1.6726,1.6748,1.6751,1.6758,1.6799,1.68,1.6762,1.6763,1.6764,1.6765,0,0,0,0,0,0,0,1.6692,1.6697,1.6742,1.6725,1.6724,1.6719,1.6721,1.6748,1.6746,1.6728,1.6726,1.6729,1.6748,1.6756,1.6758,1.6801,1.6762,1.6764,1.6765,1.6766,1.6881,1.6883,0,0,0,0,0,0,1.6692,1.6696,1.6741,1.6743,1.6705,1.6721,1.6723,1.6735,1.6746,1.6746,1.673,1.6728,1.6753,1.6756,1.6759,1.6813,1.6764,1.6767,1.6768,1.688,1.6882,1.6884,0,0,0,0,0,0,1.669,1.6696,1.674,1.6719,1.6724,1.6724,1.6737,1.6736,1.6745,1.6747,1.6747,1.6739,1.6752,1.6756,1.6789,1.6813,1.6768,1.677,1.6878,1.688,1.6883,1.6919,0,0,0,0,0,0,1.6689,1.6696,1.6711,1.6719,1.6725,1.6769,1.6739,1.6738,1.6748,1.6745,1.6755,1.6756,1.6751,1.6786,1.6792,1.6815,1.6772,1.6876,1.6879,1.6882,1.6915,1.6922,1.6928,0,0,0,0,0,1.6686,1.672,1.6712,1.6718,1.6745,1.6771,1.6774,1.6768,1.675,1.6767,1.6769,1.6755,1.6809,1.679,1.6796,1.6821,1.6874,1.6878,1.6882,1.6913,1.6921,1.6928,0,0,0,0,0,0,1.6716,1.6721,1.6712,1.675,1.676,1.6766,1.6787,1.6776,1.6792,1.6789,1.678,1.6783,1.6819,1.6823,1.68,1.6864,1.6839,1.6844,1.686,1.6868,1.6874,1.6873,1.6773,0,0,0,0,0,1.6726,1.6746,1.675,1.6783,1.6789,1.6787,1.6798,1.6792,1.6803,1.6807,1.6811,1.6822,1.6842,1.6855,1.6873,1.6916,1.6918,1.6936,1.6942,1.6947,1.6952,1.6977,1.6985,1.6896,1.6896,1.6896,0,0,1.6749,1.6754,1.6767,1.6789,1.6796,1.6818,1.6791,1.6815,1.6831,1.6811,1.6843,1.6847,1.6858,1.6897,1.6914,1.6902,1.6977,1.6952,1.6956,1.6958,1.6982,1.699,1.6998,1.6898,1.6898,1.6897,0,0,1.6801,1.6807,1.6836,1.6844,1.6855,1.6854,1.6861,1.6869,1.6871,1.6903,1.6889,1.6909,1.6942,1.6952,1.6961,1.7019,1.7008,1.7025,1.7058,1.7082,1.7089,1.7096,1.7118,1.7126,1.703,1.703,1.703,0,1.6828,1.686,1.6852,1.6877,1.6888,1.687,1.69,1.6909,1.6926,1.6934,1.6919,1.6962,1.6969,1.7011,1.7025,1.7032,1.7041,1.7024,1.7089,1.7095,1.7101,1.7122,1.713,1.7032,1.7032,1.7032,1.7031,0,1.6893,1.6915,1.6937,1.6954,1.6967,1.6995,1.6992,1.7007,1.7,1.7001,1.7035,1.7042,1.7063,1.7072,1.7065,1.7113,1.7105,1.709,1.7064,1.7112,1.7132,1.714,1.7035,1.7035,1.7034,1.7033,0,0,1.6964,1.6977,1.6986,1.6994,1.7006,1.7024,1.7051,1.7071,1.7084,1.7097,1.7121,1.715,1.7137,1.7147,1.7142,1.7163,1.7211,1.7145,1.7146,1.7159,1.7266,1.7278,1.7288,1.7203,1.7204,1.7206,1.7266,0,1.7018,1.7065,1.7059,1.7105,1.7127,1.7111,1.7135,1.7146,1.7148,1.7167,1.7169,1.7191,1.7171,1.7177,1.7197,1.7201,1.7232,1.7196,1.7226,1.7228,1.7225,1.7298,1.7311,1.7367,1.7273,1.7274,1.7275,0,1.7087,1.7103,1.715,1.7161,1.717,1.7191,1.721,1.7228,1.7241,1.7241,1.7253,1.7245,1.7274,1.7247,1.7288,1.7263,1.7275,1.7279,1.7281,1.7285,1.7255,1.7305,1.7384,1.7394,1.7287,1.7286,1.7285,0,1.7136,1.7169,1.7202,1.721,1.7222,1.7238,1.7244,1.7255,1.7268,1.7285,1.7293,1.7313,1.7324,1.734,1.7337,1.7318,1.7379,1.7352,1.7381,1.7382,1.7396,1.7395,1.748,1.7401,1.7401,1.7401,1.7401,0,1.7198,1.7228,1.7225,1.7246,1.728,1.7273,1.7308,1.7312,1.7322,1.7344,1.7331,1.7353,1.7347,1.7369,1.7367,1.7402,1.7407,1.7408,1.7408,1.741,1.741,1.7419,1.7416,1.7403,1.7403,1.7402,1.7402,0,1.7259,1.7258,1.7293,1.7303,1.7306,1.7331,1.7339,1.7359,1.736,1.7389,1.7395,1.7397,1.7422,1.7421,1.7448,1.7447,1.7491,1.7485,1.7487,1.7486,1.7516,1.7514,1.7611,1.7624,1.7535,1.7536,1.7537,0,1.7299,1.7322,1.7334,1.7348,1.7355,1.7377,1.7391,1.7386,1.74,1.7417,1.7436,1.7459,1.7478,1.7518,1.7523,1.7544,1.754,1.7572,1.7543,1.7546,1.7542,1.7542,1.7545,1.7578,1.7579,1.758,1.7581,0,1.737,1.7369,1.7389,1.7409,1.7425,1.744,1.7454,1.7467,1.7463,1.7481,1.7506,1.752,1.7549,1.7573,1.7595,1.7602,1.7592,1.759,1.7598,1.7602,1.7603,1.7604,1.7504,1.7588,1.7587,1.7587,1.7586,1.7586,1.7423,1.7444,1.7456,1.7479,1.7489,1.7503,1.7523,1.7527,1.7548,1.7571,1.7567,1.7595,1.7609,1.7636,1.7645,1.7668,1.7657,1.7668,1.7672,1.7675,1.7679,1.7598,1.7672,1.7672,1.7671,1.7671,1.7671,0,1.7496,1.7503,1.7524,1.7545,1.7563,1.7551,1.7567,1.7583,1.7609,1.7622,1.7641,1.7671,1.7694,1.7701,1.7724,1.7742,1.7738,1.7748,1.7747,1.775,1.7687,1.7679,1.7751,1.7751,1.7751,1.7751,1.7751,1.7751,1.7536,1.7571,1.7571,1.7612,1.7619,1.7647,1.7657,1.767,1.7681,1.7715,1.7735,1.7739,1.775,1.7774,1.7796,1.7797,1.7807,1.782,1.782,1.7762,1.7754,1.7746,1.7738,1.7822,1.7822,1.7881,1.7881,1.7882]}]]